Woensdrecht, Netherlands

11:21 AM CEST on August 24, 2016 (GMT +0200)
Woensdrecht Air Base

Weather History for EHWO - March, 2014

Change the Weather History Date:

Sunday, March 9, 2014

  Actual Average Record
Temperature  
Mean Temperature 50 °F -  
Max Temperature 68 °F 51 °F 68 °F (2014)
Min Temperature 32 °F 37 °F 23 °F (1998)
Degree Days  
Heating Degree Days 15    
Moisture  
Dew Point 35 °F    
Average Humidity 65    
Maximum Humidity 100    
Minimum Humidity 20    
Precipitation  
Precipitation 0.00 in - - ()
Sea Level Pressure  
Sea Level Pressure 30.29 in    
Wind  
Wind Speed 4 mph ()    
Max Wind Speed 9 mph    
Max Gust Speed -    
Visibility 6.1 miles    
Events      
Averages and records for this station are not official NWS values.
T = Trace of Precipitation, MM = Missing Value Source: Averaged Metar Reports

Daily Weather History Graph

Daily Weather History Graph

Search for Another Location

Airport or City:

Trip Planner

Search our weather history database for the weather conditions in past years. The results will help you decide how hot, cold, wet, or windy it might be!

Date:

Astronomy

Mar. 09, 2014 Rise Set
Actual Time 7:10 AM CET 6:36 PM CET
Civil Twilight 6:37 AM CET 7:09 PM CET
Nautical Twilight 5:58 AM CET 7:48 PM CET
Astronomical Twilight 5:19 AM CET 8:28 PM CET
Moon 11:46 AM CET (3/9) 2:53 AM CET (3/9)
Length of Visible Light 12h 32m
Length of Day
11h 26m
First Quarter, 59% of the Moon is Illuminated
Mar 9
First Quarter
Mar 16
Full
Mar 24
Last Quarter
Mar 30
New
Apr 7
First Quarter

Hourly Weather History & Observations

Time (CET) Temp. Windchill Dew Point Humidity Pressure Visibility Wind Dir Wind Speed Gust Speed Precip Events Conditions
12:00 AM 51 °F - 38 °F 49% 30.30 in 6 mi East 4.5 mph - -  
12:25 AM 50.0 °F - 37.4 °F 62% 30.27 in 5.6 mi ESE 4.6 mph - N/A   Haze
12:55 AM 50.0 °F - 37.4 °F 62% 30.27 in 5.6 mi ESE 4.6 mph - N/A   Haze
1:00 AM 48 °F - 37 °F 55% 30.29 in 6 mi East 4.5 mph - -   Light Haze
1:06 AM 44.6 °F 42.2 °F 35.6 °F 71% 30.27 in 4.3 mi East 4.6 mph - N/A   Haze
1:25 AM 39.2 °F - 33.8 °F 81% 30.27 in 4.3 mi ENE 1.2 mph - N/A   Haze
1:55 AM 41.0 °F - 35.6 °F 81% 30.30 in 4.3 mi NE 1.2 mph - N/A   Mist
2:00 AM 39 °F - 36 °F 84% 30.31 in 4 mi NE 2.2 mph - -   Mist
2:25 AM 37.4 °F - 35.6 °F 93% 30.30 in 3.1 mi East 2.3 mph - N/A   Mist
2:39 AM 33.8 °F - 30.2 °F 87% 30.30 in 3.1 mi East 2.3 mph - N/A   Mist
2:55 AM 35.6 °F 32.8 °F 33.8 °F 93% 30.30 in 3.1 mi ENE 3.5 mph - N/A   Mist
3:00 AM 35 °F - 33 °F 87% 30.31 in 3 mi ENE 4.5 mph - -   Mist
3:25 AM 35.6 °F 32.8 °F 33.8 °F 93% 30.30 in 3.1 mi East 3.5 mph - N/A   Mist
3:29 AM 33.8 °F 30.8 °F 32.0 °F 93% 30.30 in - East 3.5 mph - N/A   Mist
3:37 AM 35.6 °F - 33.8 °F 93% 30.30 in 3.1 mi East 2.3 mph - N/A   Mist
3:50 AM 35.6 °F - 33.8 °F 93% 30.30 in 3.1 mi ESE 2.3 mph - N/A   Mist
3:55 AM 35.6 °F - 33.8 °F 93% 30.30 in 3.1 mi ESE 2.3 mph - N/A   Mist
4:00 AM 34 °F - 33 °F 93% 30.30 in 3 mi ESE 4.5 mph - -   Mist
4:12 AM 33.8 °F - 30.2 °F 87% 30.27 in - SE 2.3 mph - N/A   Mist
4:16 AM 33.8 °F - 32.0 °F 93% 30.27 in 3.1 mi ESE 1.2 mph - N/A   Mist
4:25 AM 33.8 °F - 33.8 °F 100% 30.27 in 3.1 mi ESE 1.2 mph - N/A   Mist
4:29 AM 33.8 °F - 33.8 °F 100% 30.30 in - ESE 1.2 mph - N/A   Mist
4:51 AM 33.8 °F 30.8 °F 32.0 °F 93% 30.27 in 3.1 mi SE 3.5 mph - N/A   Mist
4:55 AM 32.0 °F 28.7 °F 32.0 °F 100% 30.27 in 3.1 mi ESE 3.5 mph - N/A   Mist
4:59 AM 32.0 °F 28.7 °F 32.0 °F 100% 30.27 in - ESE 3.5 mph - N/A   Mist
5:00 AM 32 °F - 31 °F 94% 30.30 in 3 mi ESE 4.5 mph - -   Mist
5:04 AM 32.0 °F 27.5 °F 32.0 °F 100% 30.27 in 3.1 mi ESE 4.6 mph - N/A   Mist
5:17 AM 33.8 °F 29.6 °F 32.0 °F 93% 30.27 in 3.1 mi ESE 4.6 mph - N/A   Mist
5:25 AM 41.0 °F 38.0 °F 35.6 °F 81% 30.27 in 3.1 mi ESE 4.6 mph - N/A   Mist
5:55 AM 35.6 °F - 32.0 °F 87% 30.27 in 3.1 mi East 2.3 mph - N/A   Mist
6:00 AM 35 °F - 32 °F 84% 30.30 in 3 mi East 2.2 mph - -   Mist
6:25 AM 37.4 °F 34.9 °F 32.0 °F 81% 30.27 in 3.7 mi East 3.5 mph - N/A   Mist
6:55 AM 35.6 °F 32.8 °F 32.0 °F 87% 30.27 in 3.1 mi East 3.5 mph - N/A   Mist
7:00 AM 36 °F - 31 °F 77% 30.30 in 3 mi East 4.5 mph - -   Mist
7:25 AM 33.8 °F - 30.2 °F 87% 30.30 in 3.1 mi East 2.3 mph - N/A   Mist
7:55 AM 33.8 °F - 30.2 °F 87% 30.30 in 3.1 mi East 2.3 mph - N/A   Mist
8:00 AM 35 °F - 32 °F 85% 30.31 in 4 mi East 2.2 mph - -   Mist
8:15 AM 37.4 °F - 33.8 °F 87% 30.30 in 5.0 mi SE 2.3 mph - N/A   Mist
8:25 AM 41.0 °F 39.0 °F 33.8 °F 76% 30.30 in 5.6 mi SE 3.5 mph - N/A   Haze
8:55 AM 48.2 °F - 33.8 °F 58% 30.30 in 6.2 mi SSE 4.6 mph - N/A   Unknown
9:00 AM 49 °F - 33 °F 42% 30.32 in 7 mi SSE 4.5 mph - -  
9:25 AM 51.8 °F - 33.8 °F 50% 30.30 in 6.2 mi SSE 6.9 mph - N/A   Unknown
9:55 AM 53.6 °F - 33.8 °F 47% 30.30 in 6.2 mi South 9.2 mph - N/A   Unknown
10:00 AM 54 °F - 35 °F 36% 30.33 in 7 mi South 8.9 mph - -  
10:25 AM 55.4 °F - 35.6 °F 47% 30.30 in 6.2 mi South 8.1 mph - N/A   Unknown
10:55 AM 57.2 °F - 35.6 °F 44% 30.30 in 6.2 mi South 9.2 mph - N/A   Unknown
11:00 AM 58 °F - 37 °F 34% 30.33 in 6 mi South 8.9 mph - -  
11:25 AM 59.0 °F - 37.4 °F 45% 30.30 in 6.2 mi South 8.1 mph - N/A   Unknown
11:55 AM 60.8 °F - 39.2 °F 45% 30.30 in 6.2 mi South 8.1 mph - N/A   Partly Cloudy
12:00 PM 62 °F - 39 °F 31% 30.33 in 7 mi South 8.9 mph - -   Scattered Clouds
12:25 PM 62.6 °F - 39.2 °F 42% 30.30 in 6.2 mi South 8.1 mph - N/A   Unknown
12:55 PM 64.4 °F - 41.0 °F 42% 30.30 in 6.2 mi South 8.1 mph - N/A   Unknown
1:00 PM 64 °F - 39 °F 28% 30.32 in 7 mi South 8.9 mph - -   Partly Cloudy
1:25 PM 66.2 °F - 41.0 °F 40% 30.30 in 6.2 mi South 9.2 mph - N/A   Unknown
1:55 PM 66.2 °F - 41.0 °F 40% 30.30 in 6.2 mi South 9.2 mph - N/A   Unknown
2:00 PM 67 °F - 40 °F 25% 30.31 in 8 mi South 8.9 mph - -  
2:25 PM 68.0 °F - 37.4 °F 33% 30.30 in 6.2 mi South 9.2 mph - N/A   Unknown
2:55 PM 68.0 °F - 39.2 °F 35% 30.27 in 6.2 mi South 6.9 mph - N/A   Unknown
3:00 PM 68 °F - 38 °F 22% 30.29 in 10 mi SSW 8.9 mph - -  
3:25 PM 68.0 °F - 35.6 °F 30% 30.27 in 6.2 mi SSW 9.2 mph - N/A   Unknown
3:55 PM 68.0 °F - 37.4 °F 33% 30.27 in 6.2 mi South 9.2 mph - N/A   Unknown
4:00 PM 68 °F - 37 °F 21% 30.29 in 11 mi SSW 6.7 mph - -  
4:25 PM 68.0 °F - 37.4 °F 33% 30.27 in 6.2 mi South 8.1 mph - N/A   Unknown
4:55 PM 68.0 °F - 37.4 °F 33% 30.27 in 6.2 mi South 6.9 mph - N/A   Unknown
5:00 PM 68 °F - 36 °F 20% 30.29 in 11 mi South 6.7 mph - -  
5:25 PM 68.0 °F - 33.8 °F 28% 30.27 in 6.2 mi South 6.9 mph - N/A   Unknown
5:55 PM 66.2 °F - 35.6 °F 32% 30.27 in 6.2 mi South 5.8 mph - N/A   Unknown
6:00 PM 66 °F - 37 °F 23% 30.28 in 14 mi South 4.5 mph - -  
6:25 PM 64.4 °F - 37.4 °F 37% 30.27 in 6.2 mi South 3.5 mph - N/A   Unknown
6:55 PM 55.4 °F - 37.4 °F 51% 30.27 in 6.2 mi NNW 1.2 mph - N/A   Partly Cloudy
7:00 PM 54 °F - 38 °F 43% 30.29 in 19 mi 2.2 mph - -   Partly Cloudy
7:25 PM 50.0 °F - 37.4 °F 62% 30.27 in 6.2 mi SE 2.3 mph - N/A   Unknown
7:55 PM 48.2 °F - 39.2 °F 71% 30.27 in 6.2 mi SSW 2.3 mph - N/A   Unknown
8:00 PM 50 °F - 38 °F 52% 30.30 in 19 mi South 4.5 mph - -  
8:25 PM 46.4 °F - 37.4 °F 71% 30.27 in 6.2 mi SE 2.3 mph - N/A   Unknown
8:55 PM 46.4 °F - 35.6 °F 66% 30.27 in 6.2 mi SE 1.2 mph - N/A   Unknown
9:00 PM 45 °F - 36 °F 62% 30.29 in 17 mi SE 2.2 mph - -  
9:25 PM 42.8 °F - 37.4 °F 81% 30.27 in 6.2 mi SSE 2.3 mph - N/A   Unknown
9:55 PM 42.8 °F 41.1 °F 37.4 °F 81% 30.27 in 6.2 mi SSE 3.5 mph - N/A   Unknown
10:00 PM 42 °F - 35 °F 67% 30.29 in 17 mi Calm Calm - -  
10:25 PM 46.4 °F - 35.6 °F 66% 30.27 in 6.2 mi West 2.3 mph - N/A   Unknown
10:55 PM 41.0 °F - 35.6 °F 81% 30.27 in 6.2 mi ESE 1.2 mph - N/A   Unknown
11:00 PM 40 °F - 36 °F 79% 30.30 in 12 mi Calm Calm - -  
11:25 PM 41.0 °F - 37.4 °F 87% 30.27 in 6.2 mi ESE 1.2 mph - N/A   Unknown
11:55 PM 39.2 °F - 35.6 °F 87% 30.27 in 6.2 mi East 2.3 mph - N/A   Unknown